Weather History for Lynchburg, VA

Change the Weather History Date:

Thursday, May 29, 2014

  Actual Average Record
Temperature  
Mean Temperature 66 °F 67 °F  
Max Temperature 69 °F 79 °F 95 °F (1941)
Min Temperature 62 °F 55 °F 40 °F (2008)
Degree Days  
Heating Degree Days 0 2  
Month to date heating degree days 65 118  
Since 1 July heating degree days 4440 4441  
Cooling Degree Days 1 4  
Month to date cooling degree days 90 56  
Year to date cooling degree days 109 74  
Growing Degree Days 15 (Base 50)    
Moisture  
Dew Point 63 °F    
Average Humidity 94    
Maximum Humidity 100    
Minimum Humidity 87    
Precipitation  
Precipitation 0.12 in 0.13 in 1.90 in (1971)
Month to date precipitation 5.39 3.47  
Year to date precipitation 21.02 16.43  
Snow  
Snow 0.00 in - - ()
Month to date snowfall 0.0  
Since 1 July snowfall 21.4  
Snow Depth 0.00 in    
Sea Level Pressure  
Sea Level Pressure 30.11 in    
Wind  
Wind Speed 4 mph (NE)    
Max Wind Speed 12 mph    
Max Gust Speed 15 mph    
Visibility 7 miles    
Events Rain    
T = Trace of Precipitation, MM = Missing Value Source: NWS Daily Summary

Daily Weather History Graph

Daily Weather History Graph

Search for Another Location

Airport:

Trip Planner

Search our weather history database for the weather conditions in past years. The results will help you decide how hot, cold, wet, or windy it might be!

Date:

Astronomy

May. 29, 2014 Rise Set
Actual Time 5:59 AM EDT 8:29 PM EDT
Civil Twilight 5:28 AM EDT 9:00 PM EDT
Nautical Twilight 4:51 AM EDT 9:37 PM EDT
Astronomical Twilight 4:09 AM EDT 10:19 PM EDT
Moon 6:49 AM EDT (5/29) 9:19 PM EDT (5/29)
Length of Visible Light 15h 31m
Length of Day
14h 30m
New Moon, 1% of the Moon is Illuminated
May 29
New Moon
Jun 5
First Quarter
Jun 13
Full
Jun 19
Last Quarter
Jun 27
New

Hourly Weather History & Observations

Time (EDT) Temp. Dew Point Humidity Pressure Visibility Wind Dir Wind Speed Gust Speed Precip Events Conditions
12:54 AM 68.0 °F 64.9 °F 90% 30.02 in 10.0 mi Calm Calm - N/A   Scattered Clouds
1:54 AM 66.2 °F 64.4 °F 94% 30.04 in 10.0 mi Calm Calm - N/A   Partly Cloudy
2:54 AM 66.0 °F 64.0 °F 93% 30.01 in 10.0 mi Calm Calm - N/A   Clear
3:54 AM 64.9 °F 64.0 °F 97% 30.01 in 9.0 mi Calm Calm - N/A   Mostly Cloudy
4:54 AM 66.0 °F 64.0 °F 93% 30.03 in 10.0 mi NNE 3.5 mph - N/A   Scattered Clouds
5:50 AM 66.2 °F 64.4 °F 94% 30.07 in 10.0 mi NE 8.1 mph - N/A   Partly Cloudy
5:54 AM 66.0 °F 64.0 °F 93% 30.05 in 10.0 mi NE 8.1 mph - N/A   Scattered Clouds
6:03 AM 66.2 °F 64.4 °F 94% 30.08 in 10.0 mi NE 8.1 mph - N/A   Mostly Cloudy
6:54 AM 64.9 °F 63.0 °F 93% 30.07 in 9.0 mi ENE 8.1 mph - N/A   Overcast
7:54 AM 66.0 °F 63.0 °F 90% 30.09 in 10.0 mi ENE 6.9 mph - N/A   Overcast
8:04 AM 66.2 °F 62.6 °F 88% 30.11 in 10.0 mi ENE 5.8 mph - N/A   Overcast
8:13 AM 66.2 °F 62.6 °F 88% 30.12 in 10.0 mi NE 6.9 mph - N/A   Overcast
8:26 AM 66.2 °F 62.6 °F 88% 30.12 in 10.0 mi ENE 6.9 mph - N/A   Overcast
8:43 AM 66.2 °F 62.6 °F 88% 30.13 in 10.0 mi East 6.9 mph - N/A   Overcast
8:54 AM 66.0 °F 63.0 °F 90% 30.11 in 10.0 mi ENE 5.8 mph - N/A   Overcast
9:03 AM 66.2 °F 62.6 °F 88% 30.13 in 10.0 mi East 5.8 mph - N/A   Overcast
9:46 AM 66.2 °F 62.6 °F 88% 30.15 in 3.0 mi ENE 4.6 mph - N/A   Overcast
9:54 AM 66.0 °F 63.0 °F 90% 30.14 in 3.0 mi ENE 5.8 mph - N/A   Overcast
10:01 AM 64.4 °F 62.6 °F 94% 30.15 in 8.0 mi NE 10.4 mph - N/A   Overcast
10:54 AM 64.0 °F 62.1 °F 93% 30.15 in 3.0 mi NE 9.2 mph - N/A   Overcast
11:54 AM 62.1 °F 61.0 °F 96% 30.16 in 3.0 mi NE 6.9 mph - 0.00 in Rain Light Rain
12:02 PM 62.6 °F 62.6 °F 100% 30.17 in 2.5 mi NE 6.9 mph - 0.00 in Rain Light Rain
12:54 PM 63.0 °F 61.0 °F 93% 30.15 in 2.5 mi NE 5.8 mph - 0.00 in   Overcast
1:54 PM 63.0 °F 62.1 °F 97% 30.15 in 2.5 mi NE 6.9 mph - N/A   Overcast
2:08 PM 62.6 °F 62.6 °F 100% 30.16 in 3.0 mi ENE 4.6 mph - N/A   Overcast
2:54 PM 64.0 °F 62.1 °F 93% 30.13 in 10.0 mi Calm Calm - N/A   Overcast
3:54 PM 64.9 °F 62.1 °F 90% 30.11 in 10.0 mi ENE 5.8 mph - N/A   Overcast
4:54 PM 64.4 °F 62.6 °F 94% 30.12 in 7.0 mi East 6.9 mph - N/A   Overcast
5:54 PM 64.4 °F 62.6 °F 94% 30.12 in 10.0 mi ENE 5.8 mph - N/A   Overcast
6:19 PM 62.6 °F 62.6 °F 100% 30.12 in 2.0 mi NE 5.8 mph - N/A   Overcast
6:31 PM 62.6 °F 62.6 °F 100% 30.12 in 4.0 mi NE 6.9 mph - N/A   Overcast
6:54 PM 63.0 °F 62.1 °F 97% 30.12 in 3.0 mi NNE 6.9 mph - N/A   Overcast
7:10 PM 62.6 °F 62.6 °F 100% 30.13 in 2.0 mi NNE 5.8 mph - N/A   Overcast
7:32 PM 62.6 °F 62.6 °F 100% 30.13 in 5.0 mi SE 3.5 mph - 0.00 in Rain Light Rain
7:54 PM 62.1 °F 62.1 °F 100% 30.12 in 5.0 mi Calm Calm - 0.03 in Rain Rain
8:01 PM 62.6 °F 62.6 °F 100% 30.13 in 4.0 mi Calm Calm - 0.02 in Rain Rain
8:27 PM 62.6 °F 62.6 °F 100% 30.13 in 10.0 mi Calm Calm - 0.06 in Rain Light Rain
8:37 PM 62.6 °F 62.6 °F 100% 30.13 in 10.0 mi Calm Calm - 0.07 in Rain Light Rain
8:54 PM 62.1 °F 62.1 °F 100% 30.11 in 10.0 mi Calm Calm - 0.07 in   Overcast
9:14 PM 62.6 °F 62.6 °F 100% 30.13 in 10.0 mi Calm Calm - N/A   Overcast
9:54 PM 63.0 °F 62.1 °F 97% 30.13 in 10.0 mi Calm Calm - N/A   Overcast
10:54 PM 63.0 °F 62.1 °F 97% 30.13 in 6.0 mi Calm Calm - N/A   Overcast
11:20 PM 62.6 °F 62.6 °F 100% 30.13 in 2.5 mi Calm Calm - N/A   Overcast
11:30 PM 62.6 °F 62.6 °F 100% 30.14 in 3.0 mi Calm Calm - N/A   Overcast
11:54 PM 62.1 °F 62.1 °F 100% 30.14 in 3.0 mi NNE 3.5 mph - N/A   Overcast